When you browse on this site, cookies collect data to enhance your experience and personalize the content and advertising you see.
Visit our Privacy Policy to learn more. By continuing to use the site, you agree to this use of cookies and data.
EN

Hourly Weather Darwin

Today, 19 September, Saturday

Time Temperature Precipitation Wind Pressure Humidity
00:00 +27°C° 0.1 mm 1 mps 758 mmHg 83%
01:00 +27°C° 0.2 mm 1 mps 758 mmHg 84%
02:00 +27°C° 0.2 mm 1 mps 758 mmHg 86%
03:00 +27°C° 0 mm 1 mps 757 mmHg 90%
04:00 +27°C° 0.8 mm 1 mps 758 mmHg 89%
05:00 +27°C° 0.8 mm 1 mps 758 mmHg 88%
06:00 +27°C° 0.8 mm 2 mps 758 mmHg 87%
07:00 +29°C° 0.4 mm 2 mps 759 mmHg 78%
08:00 +31°C° 0.4 mm 3 mps 759 mmHg 69%
09:00 +34°C° 0 mm 4 mps 760 mmHg 59%
10:00 +35°C° 0.1 mm 4 mps 759 mmHg 55%
11:00 +36°C° 0.1 mm 4 mps 758 mmHg 52%
12:00 +37°C° 0.1 mm 4 mps 758 mmHg 48%
13:00 +36°C° 0.5 mm 4 mps 757 mmHg 52%
14:00 +35°C° 0.5 mm 4 mps 756 mmHg 56%
15:00 +34°C° 0 mm 4 mps 756 mmHg 59%
16:00 +33°C° 0.7 mm 3 mps 756 mmHg 62%
17:00 +33°C° 0.7 mm 3 mps 756 mmHg 66%
18:00 +31°C° 0.7 mm 2 mps 756 mmHg 69%
19:00 +30°C° 0 mm 2 mps 757 mmHg 72%
20:00 +30°C° 0 mm 2 mps 758 mmHg 75%
21:00 +29°C° 0 mm 1 mps 758 mmHg 78%
22:00 +29°C° 0 mm 1 mps 758 mmHg 80%
23:00 +28°C° 0 mm 2 mps 758 mmHg 82%

Tomorrow, 20 September, Sunday

Time Temperature Precipitation Wind Pressure Humidity
00:00 +28°C° 0 mm 2 mps 758 mmHg 84%
01:00 +28°C° 0.1 mm 2 mps 758 mmHg 85%
02:00 +28°C° 0.1 mm 1 mps 758 mmHg 86%
03:00 +27°C° 0.1 mm 1 mps 757 mmHg 87%
04:00 +27°C° 0.1 mm 1 mps 757 mmHg 88%
05:00 +27°C° 0.1 mm 1 mps 758 mmHg 88%
06:00 +27°C° 0.1 mm 1 mps 758 mmHg 89%
07:00 +29°C° 0.1 mm 2 mps 758 mmHg 80%
08:00 +31°C° 0.1 mm 3 mps 759 mmHg 72%
09:00 +33°C° 0.1 mm 3 mps 760 mmHg 63%
10:00 +34°C° 0.1 mm 3 mps 759 mmHg 59%
11:00 +35°C° 0.1 mm 2 mps 758 mmHg 55%
12:00 +36°C° 0.1 mm 2 mps 757 mmHg 51%
13:00 +35°C° 0.3 mm 3 mps 757 mmHg 55%
14:00 +34°C° 0.3 mm 3 mps 756 mmHg 59%
15:00 +34°C° 0.3 mm 4 mps 756 mmHg 63%
16:00 +33°C° 0.1 mm 4 mps 756 mmHg 65%
17:00 +31°C° 0.1 mm 3 mps 756 mmHg 68%
18:00 +31°C° 0.1 mm 3 mps 756 mmHg 70%
19:00 +30°C° 0 mm 3 mps 756 mmHg 74%
20:00 +30°C° 0 mm 3 mps 757 mmHg 78%
21:00 +29°C° 0 mm 2 mps 758 mmHg 82%
22:00 +29°C° 0 mm 3 mps 758 mmHg 83%
23:00 +29°C° 0 mm 3 mps 758 mmHg 84%

Day after tomorrow, 21 September, Monday

Time Temperature Precipitation Wind Pressure Humidity
00:00 +29°C° 0 mm 3 mps 758 mmHg 86%
01:00 +28°C° 0 mm 3 mps 757 mmHg 86%
02:00 +28°C° 0 mm 3 mps 757 mmHg 87%
03:00 +28°C° 0 mm 2 mps 757 mmHg 88%
04:00 +28°C° 0 mm 2 mps 757 mmHg 88%
05:00 +27°C° 0 mm 2 mps 758 mmHg 88%
06:00 +27°C° 0 mm 2 mps 758 mmHg 88%
07:00 +29°C° 0 mm 2 mps 758 mmHg 79%
08:00 +31°C° 0 mm 1 mps 758 mmHg 70%
09:00 +33°C° 0 mm 1 mps 759 mmHg 61%
10:00 +35°C° 0 mm 1 mps 758 mmHg 53%
11:00 +37°C° 0 mm 1 mps 757 mmHg 45%
12:00 +40°C° 0 mm 1 mps 757 mmHg 37%
13:00 +39°C° 0 mm 3 mps 756 mmHg 40%
14:00 +38°C° 0 mm 4 mps 755 mmHg 43%
15:00 +37°C° 0 mm 5 mps 755 mmHg 45%
16:00 +36°C° 0 mm 4 mps 755 mmHg 50%
17:00 +35°C° 0 mm 4 mps 755 mmHg 54%
18:00 +33°C° 0 mm 3 mps 755 mmHg 58%
19:00 +33°C° 0 mm 3 mps 756 mmHg 63%
20:00 +31°C° 0 mm 3 mps 756 mmHg 67%
21:00 +30°C° 0 mm 4 mps 757 mmHg 72%
22:00 +30°C° 0 mm 3 mps 757 mmHg 75%
23:00 +30°C° 0 mm 2 mps 757 mmHg 78%

22 September, Tuesday

Time Temperature Precipitation Wind Pressure Humidity
00:00 +29°C° 0 mm 2 mps 758 mmHg 81%
01:00 +29°C° 0 mm 2 mps 757 mmHg 82%
02:00 +29°C° 0 mm 1 mps 757 mmHg 83%
03:00 +28°C° 0 mm 1 mps 757 mmHg 85%
04:00 +28°C° 0 mm 1 mps 757 mmHg 86%
05:00 +28°C° 0 mm 2 mps 758 mmHg 86%
06:00 +27°C° 0 mm 2 mps 758 mmHg 87%
07:00 +29°C° 0 mm 2 mps 758 mmHg 77%
08:00 +31°C° 0 mm 2 mps 759 mmHg 66%
09:00 +34°C° 0 mm 2 mps 759 mmHg 56%
10:00 +36°C° 0 mm 3 mps 759 mmHg 48%
11:00 +38°C° 0 mm 3 mps 758 mmHg 40%
12:00 +40°C° 0 mm 4 mps 758 mmHg 32%
13:00 +40°C° 0 mm 4 mps 757 mmHg 33%
14:00 +40°C° 0 mm 5 mps 756 mmHg 33%
15:00 +40°C° 0 mm 5 mps 755 mmHg 34%
16:00 +37°C° 0 mm 5 mps 756 mmHg 40%
17:00 +36°C° 0 mm 4 mps 756 mmHg 45%
18:00 +34°C° 0 mm 4 mps 756 mmHg 50%
19:00 +33°C° 0 mm 4 mps 756 mmHg 56%
20:00 +32°C° 0 mm 4 mps 757 mmHg 62%
21:00 +30°C° 0 mm 4 mps 758 mmHg 67%
22:00 +30°C° 0 mm 4 mps 758 mmHg 71%
23:00 +29°C° 0 mm 3 mps 758 mmHg 74%

23 September, Wednesday

Time Temperature Precipitation Wind Pressure Humidity
00:00 +29°C° 0 mm 2 mps 758 mmHg 77%
01:00 +29°C° 0 mm 2 mps 758 mmHg 78%
02:00 +28°C° 0 mm 2 mps 758 mmHg 79%
03:00 +28°C° 0 mm 2 mps 758 mmHg 79%
04:00 +28°C° 0 mm 2 mps 758 mmHg 80%
05:00 +27°C° 0 mm 2 mps 758 mmHg 81%
06:00 +27°C° 0 mm 2 mps 759 mmHg 81%
07:00 +29°C° 0.3 mm 2 mps 759 mmHg 73%
08:00 +31°C° 0.3 mm 2 mps 760 mmHg 66%
09:00 +32°C° 0.3 mm 2 mps 760 mmHg 58%
10:00 +35°C° 0 mm 3 mps 760 mmHg 50%
11:00 +37°C° 0 mm 3 mps 759 mmHg 42%
12:00 +40°C° 0 mm 4 mps 759 mmHg 33%
13:00 +39°C° 0 mm 5 mps 758 mmHg 36%
14:00 +39°C° 0 mm 5 mps 757 mmHg 39%
15:00 +38°C° 0 mm 6 mps 756 mmHg 41%
16:00 +36°C° 0 mm 5 mps 757 mmHg 45%
17:00 +35°C° 0 mm 5 mps 757 mmHg 50%
18:00 +34°C° 0 mm 5 mps 757 mmHg 54%
19:00 +33°C° 0.4 mm 4 mps 758 mmHg 59%
20:00 +31°C° 0.4 mm 3 mps 758 mmHg 64%
21:00 +30°C° 0.4 mm 3 mps 759 mmHg 69%
22:00 +30°C° 0.8 mm 2 mps 759 mmHg 72%
23:00 +29°C° 0.8 mm 2 mps 759 mmHg 74%

24 September, Thursday

Time Temperature Precipitation Wind Pressure Humidity
00:00 +29°C° 0.8 mm 1 mps 758 mmHg 76%
01:00 +29°C° 0.1 mm 1 mps 758 mmHg 77%
02:00 +28°C° 0.1 mm 1 mps 758 mmHg 77%
03:00 +28°C° 0.1 mm 1 mps 757 mmHg 78%
04:00 +28°C° 0 mm 1 mps 758 mmHg 78%
05:00 +28°C° 0 mm 1 mps 758 mmHg 79%
06:00 +28°C° 0 mm 1 mps 758 mmHg 80%
07:00 +30°C° 0 mm 1 mps 759 mmHg 71%
08:00 +31°C° 0 mm 1 mps 759 mmHg 63%
09:00 +33°C° 0 mm 1 mps 760 mmHg 55%
10:00 +36°C° 0 mm 2 mps 759 mmHg 47%
11:00 +38°C° 0 mm 3 mps 759 mmHg 40%
12:00 +40°C° 0 mm 4 mps 758 mmHg 32%
13:00 +38°C° 0 mm 4 mps 757 mmHg 37%
14:00 +37°C° 0 mm 4 mps 757 mmHg 42%
15:00 +36°C° 0 mm 4 mps 756 mmHg 47%
16:00 +35°C° 0 mm 4 mps 756 mmHg 51%
17:00 +34°C° 0 mm 3 mps 756 mmHg 55%
18:00 +32°C° 0 mm 2 mps 757 mmHg 59%
19:00 +32°C° 0.4 mm 2 mps 757 mmHg 61%
20:00 +31°C° 0.4 mm 3 mps 758 mmHg 62%
21:00 +31°C° 0.4 mm 3 mps 758 mmHg 63%
22:00 +30°C° 0 mm 3 mps 758 mmHg 66%
23:00 +30°C° 0 mm 3 mps 758 mmHg 69%
Show more